Zurück zum Katalog

STARLINK-6190

AktivKommunikationVLEO
NORAD 56774·PAYLOAD·🇺🇸 United States

Gestartet May 31, 2023 von Vandenberg Space Force Base

Loading…

Nächste Überflüge (nächste 24 Stunden)

TLE

AktuellSource: CelesTrak SupGP

Epoche: Sep 15, 2026, 02:34 UTC

1 56774C 23078H   26258.10743056 -.00045702  00000+0 -38297-2 0  2586
2 56774  69.9997 246.9609 0003816 268.7412 231.0574 14.98355269    19

Verfolge STARLINK-6190 in Echtzeit mit AllMySat

Download on the App Store